When you browse on this site, cookies collect data to enhance your experience and personalize the content and advertising you see.
Visit our Privacy Policy to learn more. By continuing to use the site, you agree to this use of cookies and data.
  • In Spain
  • List of Countries
  • For 7 days
  • Water Temperature
  • Weather Map
  • Weather Widgets
  • user-avatar
    Login

    Hourly Weather San Fernando de Apure

    Today, 25 May, Monday

    Time Temperature Precipitation Wind Pressure Humidity
    00:00 +29°C° 0 mm 1 mps 754 mmHg 74%
    01:00 +28°C° 0 mm 1 mps 753 mmHg 76%
    02:00 +28°C° 0 mm 1 mps 753 mmHg 78%
    03:00 +27°C° 0.9 mm 1 mps 753 mmHg 83%
    04:00 +27°C° 0.9 mm 1 mps 753 mmHg 87%
    05:00 +26°C° 0.9 mm 1 mps 753 mmHg 92%
    06:00 +27°C° 1.8 mm 1 mps 754 mmHg 91%
    07:00 +27°C° 1.8 mm 1 mps 754 mmHg 90%
    08:00 +28°C° 1.8 mm 1 mps 755 mmHg 88%
    09:00 +29°C° 2.2 mm 1 mps 755 mmHg 83%
    10:00 +30°C° 2.2 mm 1 mps 755 mmHg 78%
    11:00 +32°C° 2.2 mm 1 mps 755 mmHg 73%
    12:00 +33°C° 1.2 mm 1 mps 754 mmHg 68%
    13:00 +34°C° 1.2 mm 1 mps 754 mmHg 64%
    14:00 +35°C° 1.2 mm 1 mps 753 mmHg 59%
    15:00 +34°C° 0.3 mm 1 mps 753 mmHg 61%
    16:00 +33°C° 0.3 mm 1 mps 752 mmHg 62%
    17:00 +33°C° 0.3 mm 1 mps 752 mmHg 64%
    18:00 +32°C° 0 mm 1 mps 752 mmHg 69%
    19:00 +30°C° 0 mm 1 mps 752 mmHg 73%
    20:00 +29°C° 0 mm 1 mps 753 mmHg 77%
    21:00 +29°C° 0 mm 1 mps 753 mmHg 77%
    22:00 +29°C° 0 mm 1 mps 754 mmHg 76%
    23:00 +28°C° 0 mm 1 mps 754 mmHg 76%

    Tomorrow, 26 May, Tuesday

    Time Temperature Precipitation Wind Pressure Humidity
    00:00 +28°C° 0 mm 1 mps 754 mmHg 78%
    01:00 +28°C° 0 mm 1 mps 754 mmHg 79%
    02:00 +28°C° 0 mm 1 mps 753 mmHg 81%
    03:00 +27°C° 0.2 mm 1 mps 753 mmHg 83%
    04:00 +27°C° 0.2 mm 1 mps 753 mmHg 85%
    05:00 +27°C° 0.2 mm 1 mps 753 mmHg 88%
    06:00 +25°C° 0.4 mm 0 mps 754 mmHg 86%
    07:00 +26°C° 0.4 mm 0 mps 754 mmHg 85%
    08:00 +27°C° 0.4 mm 0 mps 755 mmHg 83%
    09:00 +28°C° 1.9 mm 0 mps 755 mmHg 78%
    10:00 +30°C° 1.9 mm 0 mps 755 mmHg 73%
    11:00 +33°C° 1.9 mm 1 mps 755 mmHg 68%
    12:00 +33°C° 1.4 mm 1 mps 754 mmHg 69%
    13:00 +33°C° 1.4 mm 1 mps 754 mmHg 70%
    14:00 +32°C° 1.4 mm 1 mps 753 mmHg 70%
    15:00 +32°C° 0.9 mm 1 mps 753 mmHg 73%
    16:00 +31°C° 0.9 mm 1 mps 752 mmHg 76%
    17:00 +31°C° 0.9 mm 1 mps 752 mmHg 79%
    18:00 +30°C° 1 mm 1 mps 753 mmHg 83%
    19:00 +29°C° 1 mm 2 mps 753 mmHg 87%
    20:00 +27°C° 1 mm 2 mps 754 mmHg 91%
    21:00 +27°C° 0 mm 2 mps 754 mmHg 91%
    22:00 +27°C° 0 mm 2 mps 754 mmHg 92%
    23:00 +27°C° 0 mm 2 mps 755 mmHg 92%

    Day after tomorrow, 27 May, Wednesday

    Time Temperature Precipitation Wind Pressure Humidity
    00:00 +26°C° 0.1 mm 2 mps 754 mmHg 93%
    01:00 +26°C° 0.1 mm 2 mps 754 mmHg 94%
    02:00 +26°C° 0.1 mm 2 mps 754 mmHg 95%
    03:00 +26°C° 0.3 mm 1 mps 754 mmHg 95%
    04:00 +26°C° 0.3 mm 1 mps 754 mmHg 96%
    05:00 +26°C° 0.3 mm 1 mps 754 mmHg 96%
    06:00 +26°C° 1.8 mm 2 mps 755 mmHg 95%
    07:00 +26°C° 1.8 mm 2 mps 755 mmHg 94%
    08:00 +27°C° 1.8 mm 3 mps 756 mmHg 93%
    09:00 +27°C° 0.9 mm 3 mps 756 mmHg 92%
    10:00 +27°C° 0.9 mm 2 mps 756 mmHg 91%
    11:00 +27°C° 0.9 mm 2 mps 756 mmHg 89%
    12:00 +28°C° 1.5 mm 2 mps 755 mmHg 88%
    13:00 +29°C° 1.5 mm 2 mps 755 mmHg 86%
    14:00 +30°C° 1.5 mm 1 mps 754 mmHg 84%
    15:00 +29°C° 2 mm 1 mps 753 mmHg 85%
    16:00 +29°C° 2 mm 1 mps 753 mmHg 87%
    17:00 +29°C° 2 mm 1 mps 752 mmHg 88%
    18:00 +28°C° 0.2 mm 1 mps 753 mmHg 90%
    19:00 +25°C° 0.2 mm 0 mps 753 mmHg 92%
    20:00 +25°C° 0.2 mm 0 mps 754 mmHg 93%
    21:00 +24°C° 0 mm 0 mps 754 mmHg 93%
    22:00 +24°C° 0 mm 0 mps 754 mmHg 93%
    23:00 +24°C° 0 mm 0 mps 754 mmHg 94%

    28 May, Thursday

    Time Temperature Precipitation Wind Pressure Humidity
    00:00 +24°C° 0.3 mm 0 mps 754 mmHg 94%
    01:00 +24°C° 0.3 mm 0 mps 753 mmHg 95%
    02:00 +25°C° 0.3 mm 1 mps 753 mmHg 95%
    03:00 +23°C° 1 mm 0 mps 753 mmHg 96%
    04:00 +23°C° 1 mm 0 mps 753 mmHg 97%
    05:00 +23°C° 1 mm 0 mps 753 mmHg 97%
    06:00 +26°C° 1.2 mm 1 mps 754 mmHg 95%
    07:00 +27°C° 1.2 mm 1 mps 754 mmHg 93%
    08:00 +28°C° 1.2 mm 1 mps 755 mmHg 90%
    09:00 +29°C° 1 mm 1 mps 755 mmHg 87%
    10:00 +29°C° 1 mm 2 mps 755 mmHg 84%
    11:00 +30°C° 1 mm 2 mps 755 mmHg 81%
    12:00 +31°C° 0.7 mm 2 mps 754 mmHg 77%
    13:00 +31°C° 0.7 mm 2 mps 753 mmHg 74%
    14:00 +32°C° 0.7 mm 2 mps 753 mmHg 71%
    15:00 +32°C° 0.1 mm 2 mps 752 mmHg 72%
    16:00 +32°C° 0.1 mm 1 mps 752 mmHg 72%
    17:00 +32°C° 0.1 mm 1 mps 752 mmHg 72%
    18:00 +30°C° 0 mm 1 mps 752 mmHg 78%
    19:00 +29°C° 0 mm 1 mps 753 mmHg 84%
    20:00 +27°C° 0 mm 1 mps 753 mmHg 90%
    21:00 +27°C° 0 mm 1 mps 753 mmHg 91%
    22:00 +26°C° 0 mm 1 mps 754 mmHg 92%
    23:00 +26°C° 0 mm 1 mps 754 mmHg 94%

    29 May, Friday

    Time Temperature Precipitation Wind Pressure Humidity
    00:00 +26°C° 0 mm 1 mps 754 mmHg 94%
    01:00 +26°C° 0 mm 1 mps 753 mmHg 94%
    02:00 +23°C° 0 mm 0 mps 753 mmHg 93%
    03:00 +23°C° 0.1 mm 0 mps 753 mmHg 93%
    04:00 +23°C° 0.1 mm 0 mps 753 mmHg 94%
    05:00 +23°C° 0.1 mm 0 mps 753 mmHg 94%
    06:00 +24°C° 0.1 mm 0 mps 754 mmHg 90%
    07:00 +27°C° 0.1 mm 1 mps 754 mmHg 87%
    08:00 +28°C° 0.1 mm 1 mps 754 mmHg 83%
    09:00 +30°C° 0.1 mm 2 mps 754 mmHg 77%
    10:00 +31°C° 0.1 mm 3 mps 754 mmHg 71%
    11:00 +33°C° 0.1 mm 3 mps 754 mmHg 65%
    12:00 +34°C° 0.5 mm 3 mps 754 mmHg 65%
    13:00 +34°C° 0.5 mm 3 mps 753 mmHg 65%
    14:00 +34°C° 0.5 mm 2 mps 752 mmHg 65%
    15:00 +34°C° 0.2 mm 2 mps 752 mmHg 65%
    16:00 +33°C° 0.2 mm 1 mps 751 mmHg 65%
    17:00 +33°C° 0.2 mm 1 mps 751 mmHg 64%
    18:00 +32°C° 0 mm 1 mps 751 mmHg 69%
    19:00 +30°C° 0 mm 1 mps 752 mmHg 73%
    20:00 +29°C° 0 mm 1 mps 752 mmHg 77%
    21:00 +28°C° 0 mm 1 mps 752 mmHg 79%
    22:00 +28°C° 0 mm 1 mps 753 mmHg 81%
    23:00 +28°C° 0 mm 1 mps 753 mmHg 83%

    30 May, Saturday

    Time Temperature Precipitation Wind Pressure Humidity
    00:00 +27°C° 0 mm 1 mps 753 mmHg 84%
    01:00 +27°C° 0 mm 1 mps 752 mmHg 85%
    02:00 +27°C° 0 mm 1 mps 752 mmHg 86%
    03:00 +27°C° 0.1 mm 1 mps 752 mmHg 85%
    04:00 +27°C° 0.1 mm 2 mps 753 mmHg 84%
    05:00 +27°C° 0.1 mm 2 mps 753 mmHg 83%
    06:00 +27°C° 0.2 mm 2 mps 753 mmHg 82%
    07:00 +28°C° 0.2 mm 2 mps 754 mmHg 81%
    08:00 +28°C° 0.2 mm 3 mps 754 mmHg 81%
    09:00 +30°C° 0.2 mm 3 mps 754 mmHg 76%
    10:00 +31°C° 0.2 mm 3 mps 754 mmHg 72%
    11:00 +33°C° 0.2 mm 3 mps 754 mmHg 67%
    12:00 +33°C° 1.5 mm 3 mps 754 mmHg 69%
    13:00 +32°C° 1.5 mm 2 mps 753 mmHg 70%
    14:00 +32°C° 1.5 mm 2 mps 752 mmHg 72%
    15:00 +32°C° 1.4 mm 1 mps 752 mmHg 74%
    16:00 +32°C° 1.4 mm 1 mps 751 mmHg 77%
    17:00 +31°C° 1.4 mm 1 mps 751 mmHg 79%
    18:00 +30°C° 0.3 mm 1 mps 751 mmHg 82%
    19:00 +29°C° 0.3 mm 1 mps 752 mmHg 86%
    20:00 +28°C° 0.3 mm 1 mps 752 mmHg 89%
    21:00 +27°C° 0.4 mm 1 mps 753 mmHg 91%
    22:00 +27°C° 0.4 mm 1 mps 753 mmHg 92%
    23:00 +26°C° 0.4 mm 1 mps 754 mmHg 94%
    Show more